Weather History for Port Clinton Carl R Keller Fi, OH

Change the Weather History Date:

Friday, November 29, 2013

  Actual Average (KTOL) Record (KTOL)
Temperature  
Mean Temperature 28 °F 36 °F  
Max Temperature 37 °F 43 °F 66 °F (2006)
Min Temperature 19 °F 29 °F 3 °F (1958)
Degree Days  
Heating Degree Days 37 29  
Month to date heating degree days 678  
Since 1 July heating degree days 1204  
Cooling Degree Days 0 0  
Month to date cooling degree days 0  
Year to date cooling degree days 793  
Moisture  
Dew Point 20 °F    
Average Humidity 73    
Maximum Humidity 89    
Minimum Humidity 52    
Precipitation  
Precipitation 0.00 in 0.10 in 2.77 in (2011)
Month to date precipitation 2.76  
Year to date precipitation 31.46  
Snow  
Snow 0.00 in 0.10 in - ()
Month to date snowfall 1.8  
Since 1 July snowfall 2.0  
Since 1 September snowfall 2.0  
Snow Depth -    
Sea Level Pressure  
Sea Level Pressure 30.56 in    
Wind  
Wind Speed 2 mph (ESE)    
Max Wind Speed 9 mph    
Max Gust Speed -    
Visibility 10 miles    
Events      
T = Trace of Precipitation, MM = Missing Value Source: NWS Daily Summary

Daily Weather History Graph

Daily Weather History Graph

Search for Another Location

Airport:

Trip Planner

Search our weather history database for the weather conditions in past years. The results will help you decide how hot, cold, wet, or windy it might be!

Date:

Astronomy

Nov. 29, 2013 Rise Set
Actual Time 7:36 AM EST 5:02 PM EST
Civil Twilight 7:05 AM EST 5:33 PM EST
Nautical Twilight 6:31 AM EST 6:08 PM EST
Astronomical Twilight 5:58 AM EST 6:41 PM EST
Moon 3:38 AM EST (11/29) 2:49 PM EST (11/29)
Length of Visible Light 10h 27m
Length of Day
9h 26m
Waning Crescent, 14% of the Moon is Illuminated
Nov 29
Waning Crescent
Dec 2
New
Dec 9
First Quarter
Dec 17
Full
Dec 25
Last Quarter

Hourly Weather History & Observations

Time (EST) Temp. Windchill Dew Point Humidity Pressure Visibility Wind Dir Wind Speed Gust Speed Precip Events Conditions
12:14 AM 21.2 °F - 15.8 °F 80% 30.41 in 10.0 mi Calm Calm - N/A   Clear
12:33 AM 24.8 °F - 21.2 °F 86% 30.42 in 10.0 mi Calm Calm - N/A   Clear
12:54 AM 24.1 °F - 20.1 °F 85% 30.42 in 10.0 mi Calm Calm - N/A   Clear
1:14 AM 23.0 °F - 17.6 °F 80% 30.41 in 10.0 mi Calm Calm - N/A   Clear
1:33 AM 21.2 °F - 17.6 °F 86% 30.42 in 10.0 mi Calm Calm - N/A   Clear
1:54 AM 21.0 °F - 17.1 °F 85% 30.44 in 10.0 mi Calm Calm - N/A   Clear
2:14 AM 21.2 °F - 17.6 °F 86% 30.44 in 10.0 mi Calm Calm - N/A   Clear
2:33 AM 19.4 °F - 15.8 °F 86% 30.44 in 10.0 mi Calm Calm - N/A   Clear
2:54 AM 21.0 °F 16.2 °F 17.1 °F 85% 30.45 in 10.0 mi SW 3.5 mph - N/A   Clear
3:14 AM 19.4 °F - 15.8 °F 86% 30.47 in 10.0 mi Calm Calm - N/A   Clear
3:33 AM 19.4 °F 14.3 °F 15.8 °F 86% 30.47 in 10.0 mi WSW 3.5 mph - N/A   Clear
3:54 AM 19.0 °F - 15.1 °F 85% 30.46 in 10.0 mi Calm Calm - N/A   Clear
4:13 AM 19.4 °F - 15.8 °F 86% 30.47 in 10.0 mi Calm Calm - N/A   Clear
4:34 AM 19.4 °F 12.8 °F 15.8 °F 86% 30.49 in 10.0 mi SW 4.6 mph - N/A   Mostly Cloudy
4:53 AM 22.1 °F 17.4 °F 18.1 °F 85% 30.49 in 10.0 mi WSW 3.5 mph - N/A   Mostly Cloudy
5:13 AM 23.0 °F 18.4 °F 19.4 °F 86% 30.49 in 10.0 mi SW 3.5 mph - N/A   Mostly Cloudy
5:33 AM 21.2 °F - 17.6 °F 86% 30.50 in 10.0 mi Calm Calm - N/A   Overcast
5:53 AM 23.0 °F - 20.1 °F 89% 30.52 in 10.0 mi Calm Calm - N/A   Overcast
6:14 AM 24.8 °F - 21.2 °F 86% 30.52 in 10.0 mi Calm Calm - N/A   Overcast
6:33 AM 26.6 °F - 21.2 °F 80% 30.53 in 10.0 mi Calm Calm - N/A   Overcast
6:53 AM 26.6 °F - 21.2 °F 80% 30.53 in 10.0 mi Calm Calm - N/A   Overcast
7:14 AM 26.6 °F - 21.2 °F 80% 30.55 in 10.0 mi Calm Calm - N/A   Overcast
7:33 AM 26.6 °F - 21.2 °F 80% 30.56 in 10.0 mi Calm Calm - N/A   Overcast
7:53 AM 27.1 °F 23.2 °F 21.0 °F 78% 30.57 in 10.0 mi WSW 3.5 mph - N/A   Overcast
8:14 AM 26.6 °F - 21.2 °F 80% 30.58 in 10.0 mi Calm Calm - N/A   Overcast
8:33 AM 28.4 °F - 21.2 °F 74% 30.58 in 10.0 mi Calm Calm - N/A   Mostly Cloudy
8:54 AM 32.0 °F 28.7 °F 24.1 °F 73% 30.59 in 10.0 mi WNW 3.5 mph - N/A   Clear
9:13 AM 33.8 °F 29.6 °F 26.6 °F 75% 30.61 in 10.0 mi WNW 4.6 mph - N/A   Clear
9:33 AM 35.6 °F - 24.8 °F 65% 30.61 in 10.0 mi Calm Calm - N/A   Partly Cloudy
9:54 AM 33.8 °F - 24.8 °F 70% 30.61 in 10.0 mi Calm Calm - N/A   Scattered Clouds
10:13 AM 35.6 °F 32.8 °F 23.0 °F 60% 30.62 in 10.0 mi WNW 3.5 mph - N/A   Partly Cloudy
10:34 AM 33.8 °F - 23.0 °F 65% 30.62 in 10.0 mi Calm Calm - N/A   Clear
10:53 AM 32.0 °F 27.5 °F 21.0 °F 64% 30.63 in 10.0 mi NW 4.6 mph - N/A   Clear
11:13 AM 32.0 °F - 19.4 °F 60% 30.62 in 10.0 mi Calm Calm - N/A   Clear
11:34 AM 35.6 °F - 23.0 °F 60% 30.62 in 10.0 mi Calm Calm - N/A   Clear
11:53 AM 31.1 °F 27.7 °F 20.1 °F 64% 30.62 in 10.0 mi Variable 3.5 mph - N/A   Clear
12:13 PM 37.4 °F 32.8 °F 23.0 °F 56% 30.62 in 10.0 mi NW 5.8 mph - N/A   Clear
12:34 PM 35.6 °F 31.7 °F 21.2 °F 56% 30.61 in 10.0 mi Variable 4.6 mph - N/A   Clear
12:53 PM 36.0 °F 31.1 °F 22.1 °F 57% 30.61 in 10.0 mi North 5.8 mph - N/A   Clear
1:13 PM 35.6 °F - 19.4 °F 52% 30.61 in 10.0 mi Calm Calm - N/A   Clear
1:34 PM 32.0 °F 27.5 °F 19.4 °F 60% 30.60 in 10.0 mi North 4.6 mph - N/A   Clear
1:53 PM 34.0 °F 29.8 °F 22.1 °F 62% 30.60 in 10.0 mi NNW 4.6 mph - N/A   Scattered Clouds
2:13 PM 33.8 °F 30.8 °F 21.2 °F 60% 30.60 in 10.0 mi NNW 3.5 mph - N/A   Mostly Cloudy
2:33 PM 30.2 °F 25.4 °F 17.6 °F 60% 30.59 in 10.0 mi ENE 4.6 mph - N/A   Partly Cloudy
2:53 PM 30.0 °F 26.5 °F 17.1 °F 59% 30.60 in 10.0 mi NE 3.5 mph - N/A   Partly Cloudy
3:13 PM 32.0 °F 27.5 °F 19.4 °F 60% 30.59 in 10.0 mi ENE 4.6 mph - N/A   Scattered Clouds
3:33 PM 32.0 °F 25.6 °F 19.4 °F 60% 30.61 in 10.0 mi ENE 6.9 mph - N/A   Partly Cloudy
3:54 PM 31.1 °F 25.4 °F 20.1 °F 64% 30.62 in 10.0 mi East 5.8 mph - N/A   Clear
4:13 PM 30.2 °F 22.6 °F 19.4 °F 64% 30.62 in 10.0 mi East 8.1 mph - N/A   Clear
4:33 PM 30.2 °F 23.4 °F 19.4 °F 64% 30.62 in 10.0 mi ENE 6.9 mph - N/A   Clear
4:54 PM 28.0 °F 22.8 °F 19.0 °F 69% 30.62 in 10.0 mi East 4.6 mph - N/A   Clear
5:13 PM 28.4 °F 23.3 °F 19.4 °F 69% 30.62 in 10.0 mi East 4.6 mph - N/A   Clear
5:34 PM 24.8 °F 17.9 °F 17.6 °F 74% 30.61 in 10.0 mi ESE 5.8 mph - N/A   Clear
5:53 PM 27.1 °F 21.8 °F 19.0 °F 72% 30.62 in 10.0 mi ENE 4.6 mph - N/A   Clear
6:13 PM 26.6 °F 21.2 °F 19.4 °F 74% 30.61 in 10.0 mi East 4.6 mph - N/A   Clear
6:34 PM 24.8 °F 17.9 °F 19.4 °F 80% 30.62 in 10.0 mi East 5.8 mph - N/A   Clear
6:53 PM 27.1 °F 20.7 °F 20.1 °F 75% 30.61 in 10.0 mi East 5.8 mph - N/A   Clear
7:13 PM 26.6 °F 20.0 °F 19.4 °F 74% 30.61 in 10.0 mi East 5.8 mph - N/A   Clear
7:34 PM 26.6 °F 22.6 °F 19.4 °F 74% 30.61 in 10.0 mi East 3.5 mph - N/A   Clear
7:53 PM 26.1 °F 21.9 °F 19.0 °F 75% 30.62 in 10.0 mi ESE 3.5 mph - N/A   Clear
8:14 PM 24.8 °F 19.1 °F 19.4 °F 80% 30.61 in 10.0 mi SE 4.6 mph - N/A   Clear
8:33 PM 26.6 °F 21.2 °F 19.4 °F 74% 30.60 in 10.0 mi SE 4.6 mph - N/A   Clear
8:53 PM 27.1 °F 19.7 °F 20.1 °F 75% 30.59 in 10.0 mi SE 6.9 mph - N/A   Clear
9:14 PM 26.6 °F 18.2 °F 21.2 °F 80% 30.60 in 10.0 mi SE 8.1 mph - N/A   Clear
9:33 PM 26.6 °F 18.2 °F 19.4 °F 74% 30.59 in 10.0 mi SE 8.1 mph - N/A   Clear
9:53 PM 28.0 °F 20.8 °F 21.0 °F 75% 30.58 in 10.0 mi SE 6.9 mph - N/A   Clear
10:14 PM 28.4 °F 19.7 °F 19.4 °F 69% 30.58 in 10.0 mi SE 9.2 mph - N/A   Clear
10:33 PM 28.4 °F 19.7 °F 19.4 °F 69% 30.58 in 10.0 mi SE 9.2 mph - N/A   Clear
10:53 PM 28.0 °F 19.3 °F 19.0 °F 69% 30.58 in 10.0 mi SE 9.2 mph - N/A   Clear
11:13 PM 28.4 °F 19.7 °F 19.4 °F 69% 30.56 in 10.0 mi SSE 9.2 mph - N/A   Clear
11:33 PM 28.4 °F 20.4 °F 19.4 °F 69% 30.57 in 10.0 mi SSE 8.1 mph - N/A   Clear
11:54 PM 28.0 °F 20.0 °F 19.0 °F 69% 30.57 in 10.0 mi SSE 8.1 mph - N/A   Clear